Regional Weather Roundup
Issued by NWS Mobile, AL

Home | Current Version | Previous Version | Text Only | Print | Product List | Glossary On
Versions: 1 2 3 4 5 6 7 8 9 10 11 12 13 14 15 16 17 18 19 20 21 22 23 24 25 26 27 28 29 30 31 32 33 34 35 36 37 38 39 40 41 42 43 44 45 46 47 48 49 50
000
ASUS44 KMOB 280612
RWRMOB
REGIONAL WEATHER ROUNDUP
NATIONAL WEATHER SERVICE MOBILE AL
100 AM CDT TUE MAR 28 2017

NOTE: "FAIR" INDICATES FEW OR NO CLOUDS BELOW 12,000 FEET WITH NO
      SIGNIFICANT WEATHER AND/OR OBSTRUCTIONS TO VISIBILITY.

  * THESE STATIONS ARE PART OF THE UNIVERSITY OF SOUTH ALABAMA
    MESONET AND ARE NOT UNDER NWS OR FAA QUALITY CONTROL.

ALZ061>064-280700-
COASTAL ALABAMA

CITY           SKY/WX    TMP DP  RH WIND       PRES   REMARKS
MOBILE REG APT PTCLDY    69  66  90 S6        29.99S
6HR MIN TEMP:  69; 6HR MAX TEMP:  72;

BROOKLEY FIELD CLOUDY    72  70  93 VRB3      29.99F
6HR MIN TEMP:  72; 6HR MAX TEMP:  73;

USA CAMPUS*      N/A     68  66  94 CALM      29.98F
DOG RIVER*       N/A     70  68  94 S6        30.73F


CITY           SKY/WX    TMP DP  RH WIND       PRES   REMARKS
GULF SHORES    CLOUDY    69  69 100 S8        29.99S

$$

ALZ051>060-280700-
INTERIOR SOUTHWEST AND SOUTH CENTRAL ALABAMA

CITY           SKY/WX    TMP DP  RH WIND       PRES   REMARKS
GREENVILLE     MOCLDY    67  62  84 SW8       29.98F
6HR MIN TEMP:  67; 6HR MAX TEMP:  76;

EVERGREEN      CLOUDY    68  65  90 S8        29.99F
6HR MIN TEMP:  65; 6HR MAX TEMP:  73;

ATMORE*          N/A     68  68 100 S8        30.01S
ANDALUSIA/OPP  CLOUDY    68  64  87 CALM      29.99F
6HR MIN TEMP:  68; 6HR MAX TEMP:  75;

ANDALUSIA*       N/A     68  66  94 S6        30.00S
FLORALA APT    CLOUDY    68  65  90 S7        30.02S
6HR MIN TEMP:  67; 6HR MAX TEMP:  71;

FLORALA*         N/A     68  66  94 CALM      30.72S

$$

FLZ001>006-280700-
WESTERN FLORIDA PANHANDLE

CITY           SKY/WX    TMP DP  RH WIND       PRES   REMARKS
PENSACOLA      CLOUDY    72  68  87 SW10      29.99S
6HR MIN TEMP:  72; 6HR MAX TEMP:  73;

NAS PENSACOLA  CLOUDY    70  68  93 S8        29.99S
6HR MIN TEMP:  70; 6HR MAX TEMP:  72;

MILTON         LGT RAIN  69  68  96 S7        29.99F
6HR MIN TEMP:  69; 6HR MAX TEMP:  70; 6HR PCP: TRACE;

WHTNG S FIELD  CLOUDY    72  69  90 S7        29.99F
6HR MIN TEMP:  72; 6HR MAX TEMP:  73;



CITY           SKY/WX    TMP DP  RH WIND       PRES   REMARKS
JAY*             N/A     68  66  94 S6        30.00F
DUKE FIELD     MOCLDY    68  68 100 S7        30.00R
CRESTVIEW      CLOUDY    68  66  93 CALM      30.02S
6HR MIN TEMP:  67; 6HR MAX TEMP:  69;

VALPARAISO     MOCLDY    69  68  95 S7        30.01R
6HR MIN TEMP:  69; 6HR MAX TEMP:  70;

DESTIN         PTCLDY    72  72 100 CALM      30.00S
6HR MIN TEMP:  72; 6HR MAX TEMP:  73;


$$

MSZ076-079-280700-
INTERIOR SOUTHEAST MISSISSIPPI

CITY           SKY/WX    TMP DP  RH WIND       PRES   REMARKS
LEAKESVILLE*     N/A     66  66 100 S3        29.96F
AGRICOLA*        N/A     66  66 100 CALM      29.97F

$$

MARINE OBSERVATIONS

STATION/POSITION TIME  TEMP    WIND        PRES    WAVE
                       AIR SEA DIR/SP/G            HT/PER
                 (UTC) (F)     (DEG/KT/KT) (MB)    (FT/S)
PASCAGOULA       0548   72     200/  9/ 12 1015.1F
PETIT BOIS ISLND 0548   71     190/ 11/ 13 1015.8F
GRAND BAY        0430   72     200/ 11     1016.0S
KATRINA CUT      0530          200/ 12     1015.2R
CEDAR POINT      0530   72     200/ 12     1015.2S
E DAUPHIN ISLAND 0500   72     180/ 11/ 13 1015.0F
MIDDLE BAY LIGHT 0530   72     180/ 14     1015.6S
USCG MOBILE BAY  0548   71 74  190/  4/  5 1015.8F
STATE DOCKS      0548   71 67              1015.2F
MEAHER PARK      0530   71     180/ 10     1015.2F
WEEKS BAY        0430   71                   N/A
FORT MORGAN      0548   71     190/ 12/ 14   N/A
12 S ORANGE BCH  0550   70 69  180/  8/ 10 1015.3S   2/ 5
PENSACOLA BAY    0548   71 73  200/  8/ 11 1015.9S
64 S DAUPHIN ISL 0550   73 73  170/ 12/ 14 1015.5F   3/ 5
67 S FORT MORGAN 0530   72     180/ 14     1015.9S

$$

SELECTED LOCATIONS ACROSS THE REGION

CITY           SKY/WX    TMP DP  RH WIND       PRES   REMARKS
NEW ORLEANS    PTCLDY    71  69  93 S7        29.96S
GULFPORT       PTCLDY    73  69  87 S7        29.96F
PASCAGOULA AP  MOCLDY    71  67  87 S6        29.98S
PASCAGOULA*    NOT AVBL
HATTIESBURG    MOCLDY    69  67  93 S5        29.96F
LAUREL         CLOUDY    70  66  88 S7        29.96F
MERIDIAN       MOCLDY    65  64  97 SW3       29.95S
JACKSON        MOCLDY    67  64  90 S7        29.93R
MONTGOMERY     CLOUDY    69  61  75 S7        29.98S
TROY           MOCLDY    65  64  97 S7        30.00F
ASHFORD*         N/A     68  66  94 S6        30.00S
DOTHAN         CLOUDY    65  65 100 SW8       30.04F
PANAMA CITY    CLOUDY    70  67  90 S9        30.00F

$$




USA.gov is the U.S. government's official web portal to all federal, state and local government web resources and services.